Overview Statistics Trail Chart Weather Telemetry Raw packets
 

This is the latest recevied weather packets stored in our database for station/object W5GMO. If no packets are shown the sender has not sent any weather packets the latest 10 day(s).

<< 29 30 31 32 33 34 35 >>
Time Temp. Humidity Pressure Rain* Wind** Luminosity Snow
1788439079 24.44° C 1% 1018.4 hPa 0 mm - 93 W/m² -
1788438779 24.44° C 1% 1018.5 hPa 0 mm - 80 W/m² -
1788438477 23.89° C 1% 1018.6 hPa 0 mm - 68 W/m² -
1788438173 23.89° C 1% 1018.6 hPa 0 mm - 55 W/m² -
1788437870 23.89° C 1% 1018.4 hPa 0 mm - 51 W/m² -
1788437568 23.89° C 1% 1018.9 hPa 0 mm - 53 W/m² -
1788437263 23.89° C 1% 1019 hPa 0 mm - 43 W/m² -
1788436961 23.89° C 1% 1019 hPa 0 mm - 38 W/m² -
1788436660 23.89° C 1% 1019 hPa 0 mm - 30 W/m² -
1788436356 23.89° C 1% 1018.7 hPa 0 mm - 27 W/m² -
1788436050 23.89° C 1% 1019.1 hPa 0 mm - 18 W/m² -
1788435746 23.89° C 1% 1019.1 hPa 0 mm - 16 W/m² -
1788435441 23.89° C 1% 1019.1 hPa 0 mm - 11 W/m² -
1788435137 23.33° C 1% 1019 hPa 0 mm - 9 W/m² -
1788434854 23.33° C 1% 1018.9 hPa 0 mm - 6 W/m² -
1788434529 23.33° C 1% 1018.8 hPa 0 mm - 5 W/m² -
1788434228 23.33° C 1% 1018.3 hPa 0 mm - 11 W/m² -
1788433922 23.33° C 1% 1018 hPa 0 mm - 11 W/m² -
1788433619 23.33° C 1% 1017.8 hPa 0 mm - 9 W/m² -
1788433314 23.33° C 1% 1018 hPa 0 mm - 7 W/m² -
1788433013 23.33° C 1% 1017.9 hPa 0 mm - 4 W/m² -
1788432708 23.33° C 1% 1017.8 hPa 0 mm - 3 W/m² -
1788432408 23.33° C 1% 1017.9 hPa 0 mm - 2 W/m² -
1788432104 23.33° C 1% 1017.5 hPa 0 mm - 1 W/m² -
1788431799 23.33° C 1% 1017.4 hPa 0 mm - 1 W/m² -

* Rain latest hour (hover to see other rain measurements)
** Current wind speed in m/s (hover to see current wind gust speed)